When you browse on this site, cookies collect data to enhance your experience and personalize the content and advertising you see.
Visit our Privacy Policy to learn more. By continuing to use the site, you agree to this use of cookies and data.
  • In Portugal
  • List of Countries
  • For 7 days
  • Water Temperature
  • Satellite Maps
  • Weather Map
  • Weather Widgets
  • user-avatar
    Login

    Hourly Weather Sudoly

    Today, 27 May, Monday

    Time Temperature Precipitation Wind Pressure Humidity
    00:00 +15°C° 0 mm 2 mps 746 mmHg 91%
    01:00 +15°C° 0 mm 2 mps 746 mmHg 92%
    02:00 +15°C° 0 mm 2 mps 746 mmHg 92%
    03:00 +15°C° 0 mm 2 mps 746 mmHg 92%
    04:00 +14°C° 0 mm 2 mps 746 mmHg 92%
    05:00 +16°C° 0 mm 2 mps 746 mmHg 87%
    06:00 +18°C° 0 mm 2 mps 746 mmHg 82%
    07:00 +20°C° 0 mm 3 mps 746 mmHg 75%
    08:00 +22°C° 0 mm 3 mps 746 mmHg 68%
    09:00 +24°C° 0 mm 3 mps 745 mmHg 60%
    10:00 +26°C° 0 mm 4 mps 745 mmHg 53%
    11:00 +26°C° 0 mm 4 mps 745 mmHg 51%
    12:00 +27°C° 0 mm 4 mps 745 mmHg 50%
    13:00 +27°C° 0 mm 4 mps 745 mmHg 48%
    14:00 +27°C° 0 mm 4 mps 744 mmHg 50%
    15:00 +27°C° 0 mm 3 mps 744 mmHg 51%
    16:00 +27°C° 0 mm 3 mps 744 mmHg 53%
    17:00 +25°C° 0.1 mm 3 mps 743 mmHg 61%
    18:00 +24°C° 0.1 mm 3 mps 743 mmHg 68%
    19:00 +21°C° 0.1 mm 2 mps 743 mmHg 76%
    20:00 +20°C° 0.1 mm 2 mps 743 mmHg 80%
    21:00 +19°C° 0.1 mm 3 mps 743 mmHg 85%
    22:00 +18°C° 0.1 mm 3 mps 743 mmHg 89%
    23:00 +18°C° 0 mm 3 mps 742 mmHg 89%

    Tomorrow, 28 May, Tuesday

    Time Temperature Precipitation Wind Pressure Humidity
    00:00 +18°C° 0 mm 4 mps 742 mmHg 90%
    01:00 +18°C° 0 mm 4 mps 742 mmHg 90%
    02:00 +18°C° 0.1 mm 4 mps 741 mmHg 89%
    03:00 +17°C° 0.1 mm 4 mps 741 mmHg 89%
    04:00 +16°C° 0.1 mm 5 mps 741 mmHg 88%
    05:00 +17°C° 0 mm 5 mps 741 mmHg 86%
    06:00 +19°C° 0 mm 5 mps 741 mmHg 84%
    07:00 +19°C° 0 mm 5 mps 741 mmHg 82%
    08:00 +21°C° 0 mm 4 mps 741 mmHg 76%
    09:00 +22°C° 0 mm 4 mps 741 mmHg 70%
    10:00 +25°C° 0 mm 4 mps 741 mmHg 63%
    11:00 +25°C° 0.6 mm 4 mps 740 mmHg 64%
    12:00 +26°C° 0.6 mm 5 mps 740 mmHg 64%
    13:00 +26°C° 0.6 mm 5 mps 740 mmHg 64%
    14:00 +25°C° 1.2 mm 4 mps 740 mmHg 69%
    15:00 +23°C° 1.2 mm 4 mps 740 mmHg 74%
    16:00 +22°C° 1.2 mm 4 mps 740 mmHg 79%
    17:00 +21°C° 0.1 mm 3 mps 740 mmHg 81%
    18:00 +20°C° 0.1 mm 3 mps 739 mmHg 84%
    19:00 +19°C° 0.1 mm 3 mps 739 mmHg 86%
    20:00 +18°C° 0 mm 3 mps 739 mmHg 88%
    21:00 +18°C° 0 mm 3 mps 740 mmHg 90%
    22:00 +17°C° 0 mm 2 mps 740 mmHg 91%
    23:00 +16°C° 0 mm 2 mps 740 mmHg 92%

    Day after tomorrow, 29 May, Wednesday

    Time Temperature Precipitation Wind Pressure Humidity
    00:00 +16°C° 0 mm 2 mps 740 mmHg 93%
    01:00 +16°C° 0 mm 2 mps 741 mmHg 93%
    02:00 +15°C° 0 mm 2 mps 741 mmHg 94%
    03:00 +15°C° 0 mm 2 mps 741 mmHg 95%
    04:00 +14°C° 0 mm 2 mps 742 mmHg 96%
    05:00 +14°C° 0 mm 3 mps 742 mmHg 93%
    06:00 +16°C° 0 mm 3 mps 743 mmHg 89%
    07:00 +18°C° 0 mm 4 mps 744 mmHg 86%
    08:00 +18°C° 0 mm 4 mps 744 mmHg 84%
    09:00 +18°C° 0 mm 4 mps 745 mmHg 81%
    10:00 +18°C° 0 mm 4 mps 745 mmHg 79%
    11:00 +18°C° 0 mm 4 mps 746 mmHg 78%
    12:00 +17°C° 0 mm 5 mps 746 mmHg 76%
    13:00 +17°C° 0 mm 5 mps 747 mmHg 75%
    14:00 +16°C° 0 mm 5 mps 747 mmHg 76%
    15:00 +16°C° 0 mm 5 mps 747 mmHg 77%
    16:00 +15°C° 0 mm 5 mps 747 mmHg 77%
    17:00 +15°C° 0 mm 4 mps 747 mmHg 79%
    18:00 +14°C° 0 mm 4 mps 748 mmHg 80%
    19:00 +14°C° 0 mm 3 mps 748 mmHg 82%
    20:00 +14°C° 0 mm 3 mps 748 mmHg 82%
    21:00 +14°C° 0 mm 3 mps 749 mmHg 82%
    22:00 +14°C° 0 mm 3 mps 749 mmHg 81%
    23:00 +13°C° 0 mm 3 mps 749 mmHg 82%

    30 May, Thursday

    Time Temperature Precipitation Wind Pressure Humidity
    00:00 +12°C° 0 mm 3 mps 749 mmHg 83%
    01:00 +12°C° 0 mm 3 mps 749 mmHg 84%
    02:00 +11°C° 0 mm 3 mps 749 mmHg 82%
    03:00 +11°C° 0 mm 4 mps 749 mmHg 79%
    04:00 +11°C° 0 mm 4 mps 749 mmHg 77%
    05:00 +11°C° 0 mm 4 mps 750 mmHg 76%
    06:00 +11°C° 0 mm 4 mps 750 mmHg 76%
    07:00 +11°C° 0 mm 3 mps 750 mmHg 76%
    08:00 +12°C° 0.1 mm 3 mps 750 mmHg 75%
    09:00 +13°C° 0.1 mm 3 mps 750 mmHg 74%
    10:00 +14°C° 0.1 mm 3 mps 751 mmHg 74%
    11:00 +16°C° 0.1 mm 3 mps 751 mmHg 71%
    12:00 +17°C° 0.1 mm 3 mps 751 mmHg 67%
    13:00 +18°C° 0.1 mm 3 mps 751 mmHg 64%
    14:00 +18°C° 0 mm 3 mps 751 mmHg 66%
    15:00 +18°C° 0 mm 3 mps 751 mmHg 68%
    16:00 +18°C° 0 mm 3 mps 751 mmHg 70%
    17:00 +17°C° 0 mm 2 mps 751 mmHg 73%
    18:00 +17°C° 0 mm 2 mps 751 mmHg 75%
    19:00 +16°C° 0 mm 2 mps 751 mmHg 78%
    20:00 +15°C° 0 mm 2 mps 752 mmHg 78%
    21:00 +15°C° 0 mm 2 mps 752 mmHg 78%
    22:00 +14°C° 0 mm 2 mps 752 mmHg 78%
    23:00 +13°C° 0 mm 2 mps 752 mmHg 78%

    31 May, Friday

    Time Temperature Precipitation Wind Pressure Humidity
    00:00 +12°C° 0 mm 2 mps 752 mmHg 78%
    01:00 +10°C° 0 mm 2 mps 752 mmHg 79%
    02:00 +10°C° 0 mm 2 mps 752 mmHg 80%
    03:00 +10°C° 0 mm 2 mps 752 mmHg 81%
    04:00 +9°C° 0 mm 2 mps 752 mmHg 82%
    05:00 +12°C° 0 mm 2 mps 752 mmHg 76%
    06:00 +14°C° 0 mm 2 mps 752 mmHg 70%
    07:00 +16°C° 0 mm 2 mps 752 mmHg 64%
    08:00 +17°C° 0 mm 2 mps 752 mmHg 59%
    09:00 +19°C° 0 mm 2 mps 752 mmHg 55%
    10:00 +20°C° 0 mm 2 mps 752 mmHg 50%
    11:00 +21°C° 0 mm 2 mps 752 mmHg 48%
    12:00 +23°C° 0 mm 2 mps 752 mmHg 47%
    13:00 +23°C° 0 mm 2 mps 752 mmHg 45%
    14:00 +23°C° 0 mm 2 mps 751 mmHg 46%
    15:00 +23°C° 0 mm 2 mps 751 mmHg 48%
    16:00 +23°C° 0 mm 2 mps 751 mmHg 50%
    17:00 +21°C° 0 mm 2 mps 751 mmHg 56%
    18:00 +19°C° 0 mm 2 mps 751 mmHg 63%
    19:00 +19°C° 0 mm 1 mps 751 mmHg 69%
    20:00 +18°C° 0 mm 1 mps 751 mmHg 72%
    21:00 +16°C° 0 mm 1 mps 751 mmHg 74%
    22:00 +15°C° 0 mm 1 mps 752 mmHg 76%
    23:00 +14°C° 0 mm 1 mps 752 mmHg 79%

    1 June, Saturday

    Time Temperature Precipitation Wind Pressure Humidity
    00:00 +14°C° 0 mm 1 mps 752 mmHg 82%
    01:00 +13°C° 0 mm 1 mps 751 mmHg 84%
    02:00 +13°C° 0 mm 1 mps 752 mmHg 85%
    03:00 +13°C° 0 mm 2 mps 752 mmHg 86%
    04:00 +13°C° 0 mm 2 mps 752 mmHg 87%
    05:00 +14°C° 0 mm 2 mps 752 mmHg 81%
    06:00 +16°C° 0 mm 2 mps 752 mmHg 75%
    07:00 +18°C° 0 mm 3 mps 752 mmHg 69%
    08:00 +19°C° 0 mm 3 mps 752 mmHg 62%
    09:00 +21°C° 0 mm 3 mps 752 mmHg 55%
    10:00 +22°C° 0 mm 4 mps 752 mmHg 48%
    11:00 +23°C° 0 mm 4 mps 752 mmHg 46%
    12:00 +23°C° 0 mm 4 mps 752 mmHg 45%
    13:00 +25°C° 0 mm 4 mps 752 mmHg 44%
    14:00 +23°C° 0 mm 4 mps 752 mmHg 46%
    15:00 +23°C° 0 mm 4 mps 752 mmHg 49%
    16:00 +23°C° 0 mm 4 mps 751 mmHg 51%
    17:00 +22°C° 0 mm 3 mps 751 mmHg 58%
    18:00 +20°C° 0 mm 3 mps 751 mmHg 66%
    19:00 +19°C° 0 mm 2 mps 751 mmHg 73%
    20:00 +18°C° 0 mm 2 mps 752 mmHg 77%
    21:00 +17°C° 0 mm 2 mps 752 mmHg 81%
    22:00 +16°C° 0 mm 2 mps 752 mmHg 85%
    23:00 +15°C° 0 mm 2 mps 752 mmHg 88%
    Show more